N5CSU Weather Reports


time (UTC)temp
C
wind
direction
speed
KPH
gust
KPH
rain 1hr
cm
rain 24hr
cm
rain mn
cm
humidity
%
barometer
mb
20260508161743 22 199 0.0 0.0 0.00 0.00 0.00 68 1014.0
20260508161240 22 194 0.0 0.0 0.00 0.00 0.00 70 1014.1
20260508160738 22 201 0.0 0.0 0.00 0.00 0.00 69 1014.1
20260508160236 21 184 0.0 1.6 0.00 0.00 0.00 71 1014.3
20260508155727 21 4 0.0 0.0 0.00 0.00 0.00 70 1014.2
20260508155224 21 210 0.0 0.0 0.00 0.00 0.00 70 1014.3
20260508154720 21 198 0.0 0.0 0.00 0.00 0.00 72 1014.3
20260508154218 21 188 0.0 0.0 0.00 0.00 0.00 72 1014.6
20260508153715 21 179 0.0 1.6 0.00 0.00 0.00 72 1014.5
20260508153212 20 194 0.0 0.0 0.00 0.00 0.00 73 1014.4
20260508152708 20 179 0.0 0.0 0.00 0.00 0.00 72 1014.7
20260508152204 20 202 0.0 0.0 0.00 0.00 0.00 75 1014.7
20260508151701 20 202 0.0 0.0 0.00 0.00 0.00 72 1014.8
20260508151157 20 170 0.0 0.0 0.00 0.00 0.00 72 1014.8
20260508150654 20 185 0.0 0.0 0.00 0.00 0.00 73 1014.8
20260508150151 20 201 0.0 0.0 0.00 0.00 0.00 72 1014.7
20260508145647 20 183 0.0 0.0 0.00 0.00 0.00 72 1014.5
20260508145143 20 200 0.0 0.0 0.00 0.00 0.00 73 1014.5
20260508144641 20 203 0.0 0.0 0.00 0.00 0.00 72 1014.6
20260508144138 20 198 0.0 0.0 0.00 0.00 0.00 72 1014.4
20260508143635 19 199 0.0 0.0 0.00 0.00 0.00 74 1014.6
20260508143132 19 207 0.0 0.0 0.00 0.00 0.00 75 1014.6
20260508142628 19 196 0.0 0.0 0.00 0.00 0.00 74 1014.8
20260508142125 19 198 0.0 0.0 0.00 0.00 0.00 73 1014.7
20260508141622 19 196 0.0 0.0 0.00 0.00 0.00 74 1014.8
20260508141120 19 181 0.0 1.6 0.00 0.00 0.00 74 1015.1
20260508140617 18 186 0.0 0.0 0.00 0.00 0.00 76 1015.1
20260508140114 18 167 0.0 0.0 0.00 0.00 0.00 75 1014.9
20260508135609 18 176 0.0 0.0 0.00 0.00 0.00 76 1014.9
20260508135105 18 188 0.0 0.0 0.00 0.00 0.00 77 1014.8
20260508134602 18 197 0.0 0.0 0.00 0.00 0.00 77 1015.0
20260508134059 17 204 0.0 0.0 0.00 0.00 0.00 80 1015.0
20260508133555 17 189 0.0 0.0 0.00 0.00 0.00 83 1015.1
20260508133053 17 175 0.0 0.0 0.00 0.00 0.00 83 1014.7
20260508132545 17 185 0.0 0.0 0.00 0.00 0.00 84 1014.8
20260508132042 16 173 0.0 0.0 0.00 0.00 0.00 88 1014.8
20260508131537 16 194 0.0 0.0 0.00 0.00 0.00 93 1015.0
20260508131033 16 192 0.0 0.0 0.00 0.00 0.00 94 1014.9
20260508130531 15 192 0.0 0.0 0.00 0.00 0.00 94 1015.1
20260508130027 15 192 0.0 0.0 0.00 0.00 0.00 95 1015.3
20260508125523 15 192 0.0 0.0 0.00 0.00 0.00 95 1015.1
20260508125021 15 192 0.0 0.0 0.00 0.00 0.00 95 1015.3
20260508124519 15 193 0.0 0.0 0.00 0.00 0.00 94 1015.3
20260508124016 15 193 0.0 0.0 0.00 0.00 0.00 94 1015.3
20260508123514 15 193 0.0 0.0 0.00 0.00 0.00 94 1015.2
20260508123011 15 193 0.0 0.0 0.00 0.00 0.00 94 1015.0
20260508122508 15 193 0.0 0.0 0.00 0.00 0.00 94 1014.9
20260508122004 15 191 0.0 0.0 0.00 0.00 0.00 94 1014.8
20260508121503 15 191 0.0 0.0 0.00 0.00 0.00 94 1015.0
20260508121000 15 191 0.0 0.0 0.00 0.00 0.00 94 1015.0
20260508120458 15 191 0.0 0.0 0.00 0.00 0.00 93 1015.2
20260508115955 15 191 0.0 0.0 0.00 0.00 0.00 93 1015.1
20260508115453 15 191 0.0 0.0 0.00 0.00 0.00 93 1015.2
20260508114949 15 191 0.0 0.0 0.00 0.00 0.00 93 1015.2
20260508114446 15 191 0.0 0.0 0.00 0.00 0.00 93 1015.3
20260508113943 15 191 0.0 0.0 0.00 0.00 0.00 93 1015.1
20260508113440 15 191 0.0 0.0 0.00 0.00 0.00 93 1015.1
20260508112938 15 191 0.0 0.0 0.00 0.00 0.00 93 1015.2
20260508112434 15 190 0.0 0.0 0.00 0.00 0.00 93 1015.2
20260508111931 15 190 0.0 0.0 0.00 0.00 0.00 93 1015.3
20260508111428 15 198 0.0 0.0 0.00 0.00 0.00 93 1015.8
20260508110925 15 198 0.0 0.0 0.00 0.00 0.00 93 1015.8
20260508110423 15 198 0.0 0.0 0.00 0.00 0.00 93 1015.6
20260508105922 15 201 0.0 0.0 0.00 0.00 0.00 93 1015.7
20260508105419 15 202 0.0 0.0 0.00 0.00 0.00 93 1015.4
20260508104916 15 202 0.0 0.0 0.00 0.00 0.00 93 1015.2
20260508104413 14 202 0.0 0.0 0.00 0.00 0.00 92 1014.9
20260508103910 14 202 0.0 0.0 0.00 0.00 0.00 92 1014.8
20260508103407 14 203 0.0 0.0 0.00 0.00 0.00 92 1014.6
20260508102904 15 200 0.0 0.0 0.00 0.00 0.00 92 1014.0
20260508102403 15 200 0.0 0.0 0.00 0.00 0.00 92 1014.2
20260508101900 15 196 0.0 0.0 0.00 0.00 0.00 92 1014.0
20260508101356 15 196 0.0 0.0 0.00 0.00 0.00 92 1014.1
20260508100854 15 196 0.0 0.0 0.00 0.00 0.00 92 1014.2
20260508100353 15 195 0.0 0.0 0.00 0.00 0.00 92 1014.1
20260508095848 15 196 0.0 0.0 0.00 0.00 0.00 91 1014.4
20260508095346 15 196 0.0 0.0 0.00 0.00 0.00 91 1014.2
20260508094842 15 195 0.0 0.0 0.00 0.00 0.00 91 1014.2
20260508094340 15 199 0.0 0.0 0.00 0.00 0.00 91 1014.5
20260508093837 15 200 0.0 0.0 0.00 0.00 0.00 90 1014.5
20260508093334 15 200 0.0 0.0 0.00 0.00 0.00 90 1014.4
20260508092831 15 200 0.0 0.0 0.00 0.00 0.00 90 1014.5
20260508092329 15 196 0.0 0.0 0.00 0.00 0.00 90 1014.3
20260508091827 15 196 0.0 0.0 0.00 0.00 0.00 90 1014.5
20260508091323 16 204 0.0 0.0 0.00 0.00 0.00 90 1014.5
20260508090821 15 204 0.0 0.0 0.00 0.00 0.00 90 1014.4
20260508090320 15 204 0.0 0.0 0.00 0.00 0.00 90 1014.5
20260508085815 15 206 0.0 0.0 0.00 0.00 0.00 91 1014.3
20260508085312 15 202 0.0 0.0 0.00 0.00 0.00 91 1014.4
20260508084808 15 197 0.0 0.0 0.00 0.00 0.00 92 1014.2
20260508084306 15 195 0.0 0.0 0.00 0.00 0.00 92 1014.5
20260508083803 15 195 0.0 0.0 0.00 0.00 0.00 92 1014.7
20260508083301 15 195 0.0 0.0 0.00 0.00 0.00 92 1015.0
20260508082800 15 195 0.0 0.0 0.00 0.00 0.00 92 1015.4
20260508082258 15 196 0.0 0.0 0.00 0.00 0.00 91 1015.4
20260508081755 15 196 0.0 0.0 0.00 0.00 0.00 91 1015.3
20260508081252 15 196 0.0 0.0 0.00 0.00 0.00 91 1015.6
20260508080748 15 196 0.0 0.0 0.00 0.00 0.00 92 1015.7
20260508080247 15 196 0.0 0.0 0.00 0.00 0.00 92 1015.8
20260508075743 15 196 0.0 0.0 0.00 0.00 0.00 92 1015.7
20260508075240 15 196 0.0 0.0 0.00 0.00 0.00 92 1015.5
20260508074737 15 196 0.0 0.0 0.00 0.00 0.00 92 1015.7
20260508074235 15 196 0.0 0.0 0.00 0.00 0.00 92 1015.4
20260508073732 15 195 0.0 0.0 0.00 0.00 0.00 92 1015.5
20260508073230 15 195 0.0 0.0 0.00 0.00 0.00 92 1015.2
20260508072726 15 201 0.0 0.0 0.00 0.00 0.00 92 1015.4
20260508072223 15 198 0.0 0.0 0.00 0.00 0.00 92 1015.4
20260508071720 15 199 0.0 0.0 0.00 0.00 0.00 92 1015.5
20260508071218 15 199 0.0 0.0 0.00 0.00 0.00 92 1015.4
20260508070715 15 199 0.0 0.0 0.00 0.00 0.00 92 1015.4
20260508070214 15 199 0.0 0.0 0.00 0.00 0.00 92 1015.4
20260508065710 15 199 0.0 0.0 0.00 0.00 0.00 92 1015.6
20260508065209 15 199 0.0 0.0 0.00 0.00 0.00 92 1015.5
20260508064706 15 199 0.0 0.0 0.00 0.00 0.00 92 1015.5
20260508064204 15 199 0.0 0.0 0.00 0.00 0.00 92 1015.8
20260508063701 15 199 0.0 0.0 0.00 0.00 0.00 92 1016.0
20260508063159 15 199 0.0 0.0 0.00 0.00 0.00 92 1016.1
20260508062656 15 199 0.0 0.0 0.00 0.00 0.00 92 1015.9
20260508062153 15 199 0.0 0.0 0.00 0.00 0.00 92 1016.0
20260508061650 15 199 0.0 0.0 0.00 0.00 0.00 92 1016.0
20260508061148 15 199 0.0 0.0 0.00 0.00 0.00 92 1016.1
20260508060644 15 199 0.0 0.0 0.00 0.00 0.00 92 1016.1
20260508060142 15 199 0.0 0.0 0.00 0.00 0.00 92 1016.3
20260508055637 15 190 0.0 0.0 0.00 0.00 0.00 91 1015.9
20260508055134 15 198 0.0 0.0 0.00 0.00 0.00 91 1016.1
20260508054630 15 195 0.0 0.0 0.00 0.00 0.00 91 1016.0
20260508054128 15 195 0.0 0.0 0.00 0.00 0.00 91 1016.0
20260508053625 15 195 0.0 0.0 0.00 0.00 0.00 91 1015.9
20260508053123 15 195 0.0 0.0 0.00 0.00 0.00 90 1016.0
20260508052620 15 195 0.0 0.0 0.00 0.00 0.00 90 1015.9
20260508052117 15 195 0.0 0.0 0.00 0.00 0.00 90 1015.8
20260508051613 15 195 0.0 0.0 0.00 0.00 0.00 90 1016.0
20260508051108 15 195 0.0 0.0 0.00 0.00 0.00 90 1016.1
20260508050604 15 195 0.0 0.0 0.00 0.00 0.00 90 1016.0
20260508050103 15 196 0.0 0.0 0.00 0.00 0.00 90 1016.0
20260508045558 15 196 0.0 0.0 0.00 0.00 0.00 89 1016.1
20260508045056 15 197 0.0 0.0 0.00 0.00 0.00 89 1016.1
20260508044553 15 197 0.0 0.0 0.00 0.00 0.00 89 1016.3
20260508044049 15 197 0.0 0.0 0.00 0.00 0.00 88 1016.4
20260508043546 15 197 0.0 0.0 0.00 0.00 0.00 88 1016.1
20260508043044 15 197 0.0 0.0 0.00 0.00 0.00 88 1016.0
20260508042540 15 196 0.0 0.0 0.00 0.00 0.00 88 1016.0
20260508042037 15 196 0.0 0.0 0.00 0.00 0.00 87 1016.0
20260508041533 15 196 0.0 0.0 0.00 0.00 0.00 87 1015.8
20260508041030 15 198 0.0 0.0 0.00 0.00 0.00 87 1016.0
20260508040527 15 198 0.0 0.0 0.00 0.00 0.00 87 1015.9
20260508040024 15 198 0.0 0.0 0.00 0.00 0.00 87 1015.9
20260508035521 15 198 0.0 0.0 0.00 0.00 0.00 86 1015.9
20260508035018 15 198 0.0 0.0 0.00 0.00 0.00 86 1015.9
20260508034510 15 198 0.0 0.0 0.00 0.00 0.00 86 1015.7
20260508034007 16 198 0.0 0.0 0.00 0.00 0.00 85 1015.7
20260508033505 16 198 0.0 0.0 0.00 0.00 0.00 85 1015.6
20260508033002 16 198 0.0 0.0 0.00 0.00 0.00 85 1015.5
20260508032459 16 198 0.0 0.0 0.00 0.00 0.00 85 1015.5
20260508031956 16 198 0.0 0.0 0.00 0.00 0.00 84 1015.7
20260508031454 16 198 0.0 0.0 0.00 0.00 0.00 84 1015.8
20260508030948 16 198 0.0 0.0 0.00 0.00 0.00 84 1015.7
20260508030446 16 198 0.0 0.0 0.00 0.00 0.00 84 1015.6
20260508025943 16 198 0.0 0.0 0.00 0.00 0.00 83 1015.6
20260508025439 16 198 0.0 0.0 0.00 0.00 0.00 83 1015.6
20260508024937 16 198 0.0 0.0 0.00 0.00 0.00 83 1015.4
20260508024433 16 200 0.0 0.0 0.00 0.00 0.00 83 1015.5
20260508023930 16 200 0.0 0.0 0.00 0.00 0.00 83 1015.5
20260508023427 16 200 0.0 0.0 0.00 0.00 0.00 82 1015.4
20260508022924 16 200 0.0 0.0 0.00 0.00 0.00 82 1015.5
20260508022419 16 200 0.0 0.0 0.00 0.00 0.00 82 1015.4
20260508021916 16 200 0.0 0.0 0.00 0.00 0.00 81 1015.5
20260508021413 16 200 0.0 0.0 0.00 0.00 0.00 81 1015.3
20260508020908 16 201 0.0 0.0 0.00 0.00 0.00 80 1015.2
20260508020407 16 201 0.0 0.0 0.00 0.00 0.00 80 1015.1
20260508015903 17 201 0.0 0.0 0.00 0.00 0.00 79 1015.1
20260508015401 17 201 0.0 0.0 0.00 0.00 0.00 79 1015.1
20260508014857 17 201 0.0 0.0 0.00 0.00 0.00 79 1015.1
20260508014355 17 201 0.0 0.0 0.00 0.00 0.00 78 1015.1
20260508013855 17 202 0.0 0.0 0.00 0.00 0.00 78 1015.3
20260508013351 17 203 0.0 0.0 0.00 0.00 0.00 78 1015.0
20260508012849 17 201 0.0 0.0 0.00 0.00 0.00 77 1015.3
20260508012346 17 201 0.0 0.0 0.00 0.00 0.00 76 1015.3
20260508011844 17 201 0.0 0.0 0.00 0.00 0.00 75 1015.3
20260508011342 17 201 0.0 0.0 0.00 0.00 0.00 74 1015.0
20260508010838 18 201 0.0 0.0 0.00 0.00 0.00 74 1015.1
20260508010336 18 210 0.0 0.0 0.00 0.00 0.00 73 1015.4
20260508005833 18 194 0.0 0.0 0.00 0.00 0.00 73 1015.2
20260508005329 18 194 0.0 0.0 0.00 0.00 0.00 72 1015.2
20260508004825 18 194 0.0 0.0 0.00 0.00 0.00 73 1014.9
20260508004322 18 197 0.0 0.0 0.00 0.00 0.00 72 1015.2
20260508003818 18 197 0.0 0.0 0.00 0.00 0.00 71 1015.3
20260508003316 18 197 0.0 0.0 0.00 0.00 0.00 71 1015.2
20260508002813 18 197 0.0 0.0 0.00 0.00 0.00 71 1015.3
20260508002309 18 197 0.0 0.0 0.00 0.00 0.00 70 1015.3
20260508001806 19 197 0.0 0.0 0.00 0.00 0.00 69 1015.3
20260508001302 19 197 0.0 0.0 0.00 0.00 0.00 69 1015.3
20260508000758 19 197 0.0 0.0 0.00 0.00 0.00 68 1015.2
20260508000257 19 197 0.0 0.0 0.00 0.00 0.00 67 1015.3
20260507235752 20 197 0.0 0.0 0.00 0.00 0.00 67 1015.6
20260507235249 20 198 0.0 0.0 0.00 0.00 0.00 67 1015.3
20260507234745 20 197 0.0 0.0 0.00 0.00 0.00 65 1015.3
20260507234242 20 196 0.0 0.0 0.00 0.00 0.00 66 1015.4
20260507233738 20 190 0.0 0.0 0.00 0.00 0.00 66 1015.4
20260507233236 20 190 0.0 0.0 0.00 0.00 0.00 66 1015.5
20260507232734 20 192 0.0 0.0 0.00 0.00 0.00 66 1015.3
20260507232231 20 198 0.0 0.0 0.00 0.00 0.00 66 1015.2
20260507231727 20 201 0.0 0.0 0.00 0.00 0.00 66 1015.4
20260507231224 20 203 0.0 0.0 0.00 0.00 0.00 66 1015.5
20260507230721 20 197 0.0 0.0 0.00 0.00 0.00 68 1015.4
20260507230219 20 193 0.0 0.0 0.00 0.00 0.00 66 1015.5
20260507225717 20 185 0.0 0.0 0.00 0.00 0.00 67 1015.6
20260507225214 20 205 0.0 0.0 0.00 0.00 0.00 66 1015.6
20260507224710 20 183 0.0 0.0 0.00 0.00 0.00 66 1015.5
20260507224207 20 193 0.0 0.0 0.00 0.00 0.00 66 1015.6
20260507223703 20 184 0.0 0.0 0.00 0.00 0.00 65 1015.7
20260507223200 20 206 0.0 0.0 0.00 0.00 0.00 65 1015.6
20260507222657 20 202 0.0 0.0 0.00 0.00 0.00 65 1015.6
20260507222153 20 192 0.0 0.0 0.00 0.00 0.00 65 1015.8
20260507221650 21 201 0.0 0.0 0.00 0.00 0.00 63 1015.6
20260507221146 21 180 0.0 1.6 0.00 0.00 0.00 62 1015.3
20260507220643 21 198 0.0 0.0 0.00 0.00 0.00 61 1015.5
20260507220141 21 205 0.0 0.0 0.00 0.00 0.00 60 1015.6
20260507215637 21 202 0.0 0.0 0.00 0.00 0.00 60 1015.7
20260507215135 21 183 0.0 0.0 0.00 0.00 0.00 61 1015.8
20260507214632 21 178 0.0 0.0 0.00 0.00 0.00 60 1015.5
20260507214128 21 181 0.0 0.0 0.00 0.00 0.00 60 1015.9
20260507213625 21 169 0.0 0.0 0.00 0.00 0.00 55 1015.8
20260507213122 21 176 0.0 0.0 0.00 0.00 0.00 60 1016.0
20260507212618 21 189 0.0 0.0 0.00 0.00 0.00 60 1016.1
20260507212114 21 189 0.0 0.0 0.00 0.00 0.00 57 1016.3
20260507211611 21 188 0.0 0.0 0.00 0.00 0.00 58 1016.4
20260507211107 21 174 0.0 0.0 0.00 0.00 0.00 58 1016.4
20260507210605 21 106 0.0 1.6 0.00 0.00 0.00 57 1016.3
20260507205558 21 177 0.0 0.0 0.00 0.00 0.00 61 1016.4
20260507205054 21 186 0.0 0.0 0.00 0.00 0.00 55 1016.3
20260507204550 21 181 0.0 0.0 0.00 0.00 0.00 58 1016.3
20260507204048 21 189 0.0 0.0 0.00 0.00 0.00 57 1016.0
20260507203546 21 186 0.0 0.0 0.00 0.00 0.00 58 1016.1
20260507203043 21 194 0.0 0.0 0.00 0.00 0.00 56 1016.0
20260507202539 21 184 0.0 0.0 0.00 0.00 0.00 57 1016.3
20260507202035 21 197 0.0 0.0 0.00 0.00 0.00 58 1016.6
20260507201531 21 197 0.0 0.0 0.00 0.00 0.00 58 1016.7
20260507201027 21 190 0.0 0.0 0.00 0.00 0.00 59 1016.8
20260507200523 21 185 0.0 0.0 0.00 0.00 0.00 56 1016.8
20260507200019 21 194 0.0 0.0 0.00 0.00 0.00 55 1016.8
20260507195516 21 210 0.0 0.0 0.00 0.00 0.00 57 1016.7
20260507195014 21 180 0.0 0.0 0.00 0.00 0.00 59 1016.9
20260507194510 21 188 0.0 0.0 0.00 0.00 0.00 58 1016.8
20260507194006 21 189 0.0 1.6 0.00 0.00 0.00 57 1016.9
20260507193503 22 184 0.0 0.0 0.00 0.00 0.00 56 1017.1
20260507193000 22 192 0.0 0.0 0.00 0.00 0.00 56 1017.1
20260507192456 21 191 0.0 0.0 0.00 0.00 0.00 55 1017.4
20260507191953 22 178 0.0 1.6 0.00 0.00 0.00 56 1017.4
20260507191449 21 177 0.0 0.0 0.00 0.00 0.00 55 1017.5
20260507190946 21 178 0.0 0.0 0.00 0.00 0.00 55 1017.4
20260507190444 21 293 0.0 0.0 0.00 0.00 0.00 58 1017.4
20260507185943 21 182 0.0 0.0 0.00 0.00 0.00 56 1017.4
20260507185439 21 178 1.6 1.6 0.00 0.00 0.00 55 1017.6
20260507184936 21 161 0.0 0.0 0.00 0.00 0.00 53 1017.5
20260507184434 21 194 0.0 0.0 0.00 0.00 0.00 54 1017.6
20260507183931 21 168 0.0 0.0 0.00 0.00 0.00 56 1017.3
20260507183428 21 175 1.6 1.6 0.00 0.00 0.00 54 1017.5
20260507182925 21 193 0.0 1.6 0.00 0.00 0.00 55 1017.5
20260507182421 21 204 0.0 0.0 0.00 0.00 0.00 55 1017.7
20260507181918 21 172 3.2 3.2 0.00 0.00 0.00 56 1017.8
20260507181414 21 204 0.0 0.0 0.00 0.00 0.00 57 1017.7
20260507180910 21 194 0.0 0.0 0.00 0.00 0.00 55 1017.7
20260507180407 20 189 0.0 0.0 0.00 0.00 0.00 58 1018.0
20260507175903 20 79 1.6 1.6 0.00 0.00 0.00 52 1018.3
20260507175400 20 201 0.0 0.0 0.00 0.00 0.00 56 1018.1
20260507174858 20 176 0.0 0.0 0.00 0.00 0.00 58 1018.2
20260507174355 20 189 0.0 0.0 0.00 0.00 0.00 62 1018.3
20260507173852 20 205 0.0 0.0 0.00 0.00 0.00 59 1018.5
20260507173349 20 190 0.0 0.0 0.00 0.00 0.00 58 1018.5
20260507172846 20 191 0.0 0.0 0.00 0.00 0.00 59 1018.5
20260507172342 20 192 0.0 0.0 0.00 0.00 0.00 59 1018.8
20260507171838 20 182 0.0 0.0 0.00 0.00 0.00 62 1018.8
20260507171335 20 190 0.0 0.0 0.00 0.00 0.00 61 1019.0
20260507170832 20 189 0.0 0.0 0.00 0.00 0.00 58 1019.3
20260507170329 19 203 0.0 1.6 0.00 0.00 0.00 62 1019.2
20260507165825 19 181 0.0 0.0 0.00 0.00 0.00 60 1019.5
20260507165320 19 174 1.6 1.6 0.00 0.00 0.00 61 1019.5
20260507164817 19 190 0.0 1.6 0.00 0.00 0.00 62 1019.8
20260507164314 19 190 0.0 0.0 0.00 0.00 0.00 62 1019.8
20260507163811 18 357 0.0 1.6 0.00 0.00 0.00 60 1019.6
20260507163309 18 192 0.0 0.0 0.00 0.00 0.00 64 1019.5
20260507162805 18 185 0.0 0.0 0.00 0.00 0.00 67 1019.8
20260507162300 18 206 0.0 0.0 0.00 0.00 0.00 64 1019.9